PAL221 RPLL-YBBN

Flight info

Callsign PAL221
Flight time N/A
Altitude 31000
Route IPATA4V IPATA W25 BATAY W8 GONIL/N0465F330 W8 DAO B473 OLENG/N0462F350 B473 CS Y177 WALTA/N0453F370 Y177 SMOKA
Aircraft A21N/M-SDE3FGHIRWY/LB1

Departure

Time 2026-05-05 18:05
Airport Ninoy Aquino International Airport (RPLL)

Arrival

Time N/A
Airport Brisbane International Airport (YBBN)
Time Latitude Longitude Altitude Speed Heading
2026-05-05 17:58 14.50637 121.00735 83 ft 0 kts 113°
2026-05-05 17:59 14.50634 121.00740 83 ft 2 kts 121°
2026-05-05 17:59 14.50614 121.00759 83 ft 5 kts 149°
2026-05-05 17:59 14.50570 121.00787 83 ft 8 kts 149°
2026-05-05 18:00 14.50507 121.00826 83 ft 11 kts 150°
2026-05-05 18:00 14.50419 121.00816 83 ft 13 kts 198°
2026-05-05 18:00 14.50363 121.00766 83 ft 8 kts 240°
2026-05-05 18:00 14.50332 121.00711 83 ft 8 kts 237°
2026-05-05 18:01 14.50300 121.00655 83 ft 9 kts 239°
2026-05-05 18:01 14.50260 121.00584 83 ft 12 kts 239°
2026-05-05 18:01 14.50211 121.00498 83 ft 14 kts 239°
2026-05-05 18:01 14.50156 121.00400 83 ft 16 kts 240°
2026-05-05 18:02 14.50103 121.00284 83 ft 18 kts 244°
2026-05-05 18:02 14.50031 121.00173 83 ft 18 kts 240°
2026-05-05 18:02 14.49960 121.00049 84 ft 20 kts 241°
2026-05-05 18:02 14.49891 120.99976 83 ft 13 kts 189°
2026-05-05 18:03 14.49811 121.00011 83 ft 12 kts 115°
2026-05-05 18:03 14.49830 121.00094 83 ft 12 kts 61°
2026-05-05 18:03 14.49869 121.00163 83 ft 7 kts 60°
2026-05-05 18:03 14.49870 121.00165 83 ft 0 kts 60°
2026-05-05 18:04 14.49870 121.00166 83 ft 0 kts 60°
2026-05-05 18:04 14.49909 121.00235 83 ft 40 kts 60°
2026-05-05 18:04 14.50178 121.00723 84 ft 110 kts 60°
2026-05-05 18:04 14.50676 121.01617 84 ft 169 kts 61°
2026-05-05 18:05 14.51026 121.02241 132 ft 190 kts 63°
2026-05-05 18:05 14.51677 121.03429 799 ft 189 kts 62°
2026-05-05 18:05 14.52339 121.04619 1464 ft 192 kts 62°
2026-05-05 18:06 14.53013 121.05825 2096 ft 197 kts 62°
2026-05-05 18:06 14.53485 121.06674 2395 ft 208 kts 62°
2026-05-05 18:06 14.54509 121.08520 2905 ft 224 kts 62°
2026-05-05 18:06 14.55317 121.09979 3110 ft 240 kts 62°
2026-05-05 18:07 14.56179 121.11535 3353 ft 255 kts 61°
2026-05-05 18:07 14.57006 121.13252 3723 ft 263 kts 71°
2026-05-05 18:07 14.57469 121.15133 4082 ft 273 kts 83°
2026-05-05 18:07 14.57698 121.17120 4657 ft 276 kts 83°
2026-05-05 18:08 14.57893 121.19082 5567 ft 267 kts 81°
2026-05-05 18:08 14.58100 121.20994 6229 ft 268 kts 81°
2026-05-05 18:08 14.58323 121.22947 6772 ft 272 kts 80°
2026-05-05 18:08 14.58428 121.24950 7304 ft 280 kts 95°
2026-05-05 18:09 14.57717 121.26868 7804 ft 290 kts 125°
2026-05-05 18:09 14.56226 121.28321 8349 ft 296 kts 141°
2026-05-05 18:09 14.54532 121.29594 8876 ft 300 kts 143°
2026-05-05 18:09 14.52813 121.30861 9388 ft 303 kts 143°
2026-05-05 18:10 14.51081 121.32150 9908 ft 306 kts 143°
2026-05-05 18:10 14.49331 121.33469 10405 ft 310 kts 143°
2026-05-05 18:10 14.47530 121.34837 10658 ft 323 kts 144°
2026-05-05 18:10 14.45659 121.36264 10893 ft 336 kts 144°
2026-05-05 18:11 14.43719 121.37747 11121 ft 349 kts 144°
2026-05-05 18:11 14.41717 121.39279 11415 ft 358 kts 144°
2026-05-05 18:11 14.39686 121.40836 11911 ft 361 kts 144°
2026-05-05 18:11 14.37644 121.42402 12445 ft 362 kts 144°
2026-05-05 18:12 14.35580 121.43981 12958 ft 364 kts 144°
2026-05-05 18:12 14.33503 121.45570 13461 ft 366 kts 145°
2026-05-05 18:12 14.31429 121.47156 13952 ft 368 kts 145°
2026-05-05 18:12 14.29364 121.48737 14429 ft 369 kts 145°
2026-05-05 18:13 14.27265 121.50343 14903 ft 371 kts 145°
2026-05-05 18:13 14.25163 121.51947 15365 ft 373 kts 145°
2026-05-05 18:13 14.23050 121.53558 15819 ft 374 kts 145°
2026-05-05 18:13 14.20911 121.55187 16268 ft 376 kts 145°
2026-05-05 18:14 14.18795 121.56798 16701 ft 377 kts 145°
2026-05-05 18:14 14.16637 121.58441 17130 ft 379 kts 145°
2026-05-05 18:14 14.14498 121.60069 17541 ft 380 kts 145°
2026-05-05 18:14 14.12338 121.61713 17922 ft 382 kts 145°
2026-05-05 18:15 14.10177 121.63357 18302 ft 384 kts 145°
2026-05-05 18:15 14.07982 121.65029 18694 ft 386 kts 146°
2026-05-05 18:15 14.05801 121.66695 19068 ft 387 kts 146°
2026-05-05 18:15 14.03604 121.68372 19432 ft 388 kts 146°
2026-05-05 18:16 14.01405 121.70051 19788 ft 390 kts 146°
2026-05-05 18:16 13.99176 121.71751 20142 ft 391 kts 146°
2026-05-05 18:16 13.96956 121.73443 20483 ft 393 kts 146°
2026-05-05 18:16 13.94734 121.75137 20818 ft 394 kts 146°
2026-05-05 18:17 13.92477 121.76856 21148 ft 395 kts 146°
2026-05-05 18:17 13.90240 121.78560 21467 ft 397 kts 146°
2026-05-05 18:17 13.88015 121.80254 21780 ft 398 kts 145°
2026-05-05 18:17 13.85728 121.81995 22094 ft 399 kts 146°
2026-05-05 18:18 13.83473 121.83700 22395 ft 401 kts 146°
2026-05-05 18:18 13.81166 121.85442 22694 ft 402 kts 146°
2026-05-05 18:18 13.78896 121.87156 22981 ft 403 kts 146°
2026-05-05 18:18 13.76590 121.88895 23265 ft 405 kts 145°
2026-05-05 18:19 13.74318 121.90610 23537 ft 406 kts 145°
2026-05-05 18:19 13.71985 121.92369 23809 ft 407 kts 145°
2026-05-05 18:19 13.69685 121.94104 24071 ft 408 kts 145°
2026-05-05 18:19 13.67340 121.95871 24331 ft 410 kts 145°
2026-05-05 18:20 13.65018 121.97621 24582 ft 411 kts 145°
2026-05-05 18:20 13.62697 121.99371 24828 ft 412 kts 145°
2026-05-05 18:20 13.60328 122.01156 25073 ft 413 kts 145°
2026-05-05 18:20 13.57973 122.02929 25310 ft 415 kts 145°
2026-05-05 18:21 13.55632 122.04692 25537 ft 416 kts 145°
2026-05-05 18:21 13.53258 122.06479 25766 ft 417 kts 145°
2026-05-05 18:21 13.50877 122.08272 25986 ft 418 kts 145°
2026-05-05 18:21 13.48470 122.10082 26203 ft 419 kts 145°
2026-05-05 18:22 13.46100 122.11866 26413 ft 421 kts 145°
2026-05-05 18:22 13.43692 122.13676 26618 ft 422 kts 145°
2026-05-05 18:22 13.41310 122.15467 26815 ft 423 kts 145°
2026-05-05 18:22 13.38889 122.17287 27011 ft 424 kts 145°
2026-05-05 18:23 13.36480 122.19098 27204 ft 425 kts 145°
2026-05-05 18:23 13.34051 122.20923 27395 ft 426 kts 145°
2026-05-05 18:23 13.31618 122.22750 27547 ft 428 kts 145°
2026-05-05 18:23 13.29187 122.24576 27685 ft 430 kts 144°
2026-05-05 18:24 13.26732 122.26419 27851 ft 432 kts 144°
2026-05-05 18:24 13.24275 122.28263 28025 ft 433 kts 144°
2026-05-05 18:24 13.21796 122.30123 28202 ft 434 kts 144°
2026-05-05 18:24 13.19300 122.31995 28376 ft 435 kts 144°
2026-05-05 18:25 13.16832 122.33847 28545 ft 436 kts 144°
2026-05-05 18:25 13.15166 122.35097 28656 ft 437 kts 144°
2026-05-05 18:25 13.11842 122.37588 28921 ft 437 kts 144°
2026-05-05 18:25 13.09348 122.39458 29147 ft 437 kts 144°
2026-05-05 18:26 13.06888 122.41301 29308 ft 438 kts 144°
2026-05-05 18:26 13.04388 122.43174 29428 ft 440 kts 144°
2026-05-05 18:26 13.01853 122.45073 29555 ft 442 kts 144°
2026-05-05 18:26 12.99333 122.46959 29692 ft 443 kts 144°
2026-05-05 18:27 12.96822 122.48838 29828 ft 445 kts 144°
2026-05-05 18:27 12.94296 122.50727 29955 ft 446 kts 144°
2026-05-05 18:27 12.91744 122.52636 30097 ft 448 kts 144°
2026-05-05 18:27 12.89164 122.54565 30258 ft 448 kts 144°
2026-05-05 18:28 12.84061 122.58380 30592 ft 449 kts 144°
2026-05-05 18:28 12.81495 122.60297 30752 ft 450 kts 144°
2026-05-05 18:28 12.78953 122.62196 30885 ft 451 kts 144°
2026-05-05 18:29 12.73819 122.66029 30892 ft 452 kts 144°
2026-05-05 18:29 12.68665 122.69877 30895 ft 452 kts 144°
2026-05-05 18:30 12.63523 122.73713 30895 ft 452 kts 144°
2026-05-05 18:30 12.58390 122.77540 30895 ft 452 kts 144°
2026-05-05 18:31 12.53235 122.81382 30895 ft 452 kts 144°
2026-05-05 18:31 12.48112 122.85197 30895 ft 452 kts 144°
2026-05-05 18:32 12.42951 122.89038 30895 ft 452 kts 144°
2026-05-05 18:32 12.37801 122.92869 30895 ft 452 kts 144°
2026-05-05 18:33 12.32649 122.96699 30895 ft 452 kts 144°
2026-05-05 18:33 12.27498 123.00531 30895 ft 452 kts 144°
2026-05-05 18:34 12.22344 123.04363 30895 ft 452 kts 144°
2026-05-05 18:34 12.17193 123.08189 30895 ft 453 kts 144°
2026-05-05 18:35 12.12014 123.12033 30895 ft 453 kts 144°
2026-05-05 18:35 12.06852 123.15864 30895 ft 453 kts 144°
2026-05-05 18:36 12.01688 123.19694 30895 ft 453 kts 144°
2026-05-05 18:36 11.96490 123.23547 30895 ft 453 kts 144°
2026-05-05 18:37 11.91311 123.27383 30895 ft 453 kts 144°
2026-05-05 18:37 11.86194 123.31173 30895 ft 453 kts 144°
2026-05-05 18:38 11.80996 123.35020 30895 ft 453 kts 144°
2026-05-05 18:38 11.75810 123.38856 30895 ft 454 kts 144°
2026-05-05 18:39 11.70632 123.42685 30895 ft 454 kts 144°
2026-05-05 18:39 11.65462 123.46506 30895 ft 454 kts 144°
2026-05-05 18:40 11.60275 123.50337 30895 ft 454 kts 144°
2026-05-05 18:40 11.55111 123.54150 30895 ft 454 kts 144°
2026-05-05 18:41 11.49916 123.57984 30895 ft 454 kts 144°
2026-05-05 18:41 11.44721 123.61817 30895 ft 454 kts 144°
2026-05-05 18:42 11.39542 123.65635 30895 ft 454 kts 144°
2026-05-05 18:42 11.34366 123.69449 30895 ft 454 kts 144°
2026-05-05 18:43 11.29153 123.73289 30895 ft 454 kts 144°
2026-05-05 18:43 11.23964 123.77108 30895 ft 454 kts 145°
2026-05-05 18:44 11.18751 123.80871 30894 ft 454 kts 148°
2026-05-05 18:44 11.13108 123.83858 30895 ft 453 kts 159°
2026-05-05 18:45 11.06984 123.85743 30895 ft 453 kts 169°
2026-05-05 18:45 11.00720 123.86858 30895 ft 452 kts 171°
2026-05-05 18:46 10.94425 123.87923 30895 ft 452 kts 171°
2026-05-05 18:46 10.88129 123.89006 30895 ft 452 kts 171°
2026-05-05 18:47 10.81855 123.90093 30895 ft 452 kts 171°
2026-05-05 18:47 10.75574 123.91181 30895 ft 453 kts 171°
2026-05-05 18:48 10.69304 123.92268 30895 ft 453 kts 170°
2026-05-05 18:48 10.62994 123.93364 30895 ft 453 kts 171°
2026-05-05 18:49 10.56702 123.94453 30895 ft 453 kts 171°
2026-05-05 18:49 10.50401 123.95543 30895 ft 453 kts 171°
2026-05-05 18:50 10.44142 123.96625 30895 ft 453 kts 171°
2026-05-05 18:50 10.37800 123.97748 30894 ft 453 kts 168°
2026-05-05 18:51 10.31626 123.99413 30895 ft 453 kts 161°
2026-05-05 18:51 10.25706 124.01846 30895 ft 454 kts 154°
2026-05-05 18:52 10.20005 124.04823 30895 ft 454 kts 153°
2026-05-05 18:52 10.14309 124.07847 30895 ft 454 kts 153°
2026-05-05 18:53 10.08648 124.10841 30895 ft 454 kts 153°
2026-05-05 18:53 10.02969 124.13838 30895 ft 454 kts 153°
2026-05-05 18:54 9.97299 124.16828 30895 ft 454 kts 153°
2026-05-05 18:54 9.91617 124.19827 30895 ft 454 kts 153°
2026-05-05 18:55 9.85993 124.22795 30895 ft 454 kts 153°
2026-05-05 18:55 9.80337 124.25777 30895 ft 454 kts 153°
2026-05-05 18:56 9.74630 124.28783 30895 ft 454 kts 153°
2026-05-05 18:56 9.68924 124.31786 30895 ft 455 kts 153°
2026-05-05 18:57 9.63231 124.34781 30895 ft 455 kts 153°
2026-05-05 18:57 9.57536 124.37777 30895 ft 455 kts 153°
2026-05-05 18:58 9.51842 124.40777 30895 ft 455 kts 153°
2026-05-05 18:58 9.46172 124.43761 30895 ft 455 kts 153°
2026-05-05 18:59 9.40450 124.46770 30895 ft 455 kts 153°
2026-05-05 18:59 9.34738 124.49770 30893 ft 455 kts 153°
2026-05-05 19:00 9.29069 124.52749 30892 ft 455 kts 153°
2026-05-05 19:00 9.23386 124.55732 30891 ft 455 kts 153°
2026-05-05 19:01 9.17681 124.58726 30888 ft 455 kts 153°
2026-05-05 19:01 9.11982 124.61714 30882 ft 455 kts 153°
2026-05-05 19:02 9.06256 124.64715 30878 ft 454 kts 153°
2026-05-05 19:02 9.00567 124.67696 30875 ft 453 kts 153°
2026-05-05 19:03 8.94910 124.70661 30872 ft 452 kts 152°
2026-05-05 19:03 8.89506 124.73492 30869 ft 452 kts 152°
2026-05-05 19:04 8.84068 124.76337 30867 ft 452 kts 152°
2026-05-05 19:04 8.78440 124.79282 30867 ft 452 kts 152°
2026-05-05 19:05 8.72759 124.82259 30867 ft 452 kts 152°
2026-05-05 19:05 8.67115 124.85214 30867 ft 452 kts 152°
2026-05-05 19:06 8.61453 124.88175 30867 ft 452 kts 152°
2026-05-05 19:06 8.55798 124.91131 30867 ft 452 kts 152°
2026-05-05 19:07 8.50164 124.94074 30867 ft 452 kts 152°
2026-05-05 19:07 8.44490 124.97038 30867 ft 452 kts 152°
2026-05-05 19:08 8.38833 124.99990 30867 ft 452 kts 152°
2026-05-05 19:08 8.33170 125.02946 30867 ft 452 kts 152°
2026-05-05 19:09 8.27500 125.05906 30866 ft 452 kts 152°
2026-05-05 19:09 8.21880 125.08836 30867 ft 451 kts 153°
2026-05-05 19:10 8.16232 125.11779 30867 ft 452 kts 153°
2026-05-05 19:10 8.10575 125.14724 30867 ft 452 kts 153°
2026-05-05 19:11 8.04899 125.17677 30867 ft 452 kts 153°
2026-05-05 19:11 7.99252 125.20615 30867 ft 452 kts 153°
2026-05-05 19:12 7.93572 125.23576 30867 ft 452 kts 152°
2026-05-05 19:12 7.87915 125.26527 30867 ft 452 kts 152°
2026-05-05 19:13 7.82268 125.29472 30867 ft 452 kts 152°
2026-05-05 19:13 7.76569 125.32440 30867 ft 453 kts 152°
2026-05-05 19:14 7.70910 125.35386 30867 ft 452 kts 152°
2026-05-05 19:14 7.65227 125.38344 30867 ft 452 kts 152°
2026-05-05 19:15 7.59549 125.41298 30867 ft 452 kts 152°
2026-05-05 19:15 7.53889 125.44242 30867 ft 453 kts 152°
2026-05-05 19:16 7.48231 125.47182 30867 ft 452 kts 152°
2026-05-05 19:16 7.42555 125.50133 30867 ft 452 kts 152°
2026-05-05 19:17 7.36878 125.53085 30867 ft 452 kts 152°
2026-05-05 19:17 7.31234 125.56015 30867 ft 453 kts 152°
2026-05-05 19:18 7.25530 125.58974 30867 ft 452 kts 152°
2026-05-05 19:18 7.19867 125.61910 30867 ft 453 kts 152°
2026-05-05 19:19 7.14337 125.64945 30866 ft 452 kts 148°
2026-05-05 19:19 7.09087 125.68563 30866 ft 452 kts 143°
2026-05-05 19:20 7.04022 125.72517 30867 ft 452 kts 142°
2026-05-05 19:20 6.99008 125.76441 30867 ft 451 kts 142°
2026-05-05 19:21 6.93968 125.80378 30868 ft 449 kts 142°
2026-05-05 19:21 6.88985 125.84267 30868 ft 447 kts 142°
2026-05-05 19:22 6.84037 125.88130 30867 ft 445 kts 142°
2026-05-05 19:22 6.79072 125.92005 30867 ft 445 kts 142°
2026-05-05 19:23 6.74096 125.95884 30867 ft 445 kts 142°
2026-05-05 19:23 6.69134 125.99756 30867 ft 445 kts 142°
2026-05-05 19:24 6.64193 126.03613 30867 ft 445 kts 142°
2026-05-05 19:24 6.59223 126.07491 30867 ft 445 kts 142°
2026-05-05 19:25 6.54263 126.11357 30867 ft 445 kts 142°
2026-05-05 19:25 6.49301 126.15223 30867 ft 445 kts 142°
2026-05-05 19:26 6.44326 126.19099 30867 ft 445 kts 142°
2026-05-05 19:26 6.39361 126.22965 30867 ft 445 kts 142°
2026-05-05 19:27 6.34372 126.26849 30867 ft 445 kts 142°
2026-05-05 19:27 6.29442 126.30687 30867 ft 445 kts 142°
2026-05-05 19:28 6.24474 126.34553 30867 ft 445 kts 142°
2026-05-05 19:28 6.19526 126.38402 30867 ft 445 kts 142°
2026-05-05 19:29 6.14526 126.42291 30867 ft 445 kts 142°
2026-05-05 19:29 6.09587 126.46132 30867 ft 445 kts 142°
2026-05-05 19:30 6.04618 126.49995 30867 ft 445 kts 142°
2026-05-05 19:30 5.99634 126.53869 30867 ft 445 kts 142°
2026-05-05 19:31 5.94700 126.57703 30867 ft 445 kts 142°
2026-05-05 19:31 5.89733 126.61562 30867 ft 445 kts 142°
2026-05-05 19:32 5.84742 126.65437 30867 ft 445 kts 142°
2026-05-05 19:32 5.79790 126.69282 30867 ft 445 kts 142°
2026-05-05 19:33 5.74808 126.73150 30867 ft 445 kts 142°
2026-05-05 19:33 5.69857 126.76993 30867 ft 445 kts 142°
2026-05-05 19:34 5.64891 126.80846 30867 ft 445 kts 142°
2026-05-05 19:35 5.57450 126.86619 30867 ft 445 kts 142°
2026-05-05 19:35 5.52505 126.90453 30867 ft 445 kts 142°
2026-05-05 19:36 5.47525 126.94315 30867 ft 445 kts 142°
2026-05-05 19:36 5.42548 126.98172 30867 ft 445 kts 142°
2026-05-05 19:37 5.37586 127.02012 30860 ft 447 kts 141°
2026-05-05 19:37 5.32572 127.05891 30865 ft 452 kts 141°
2026-05-05 19:38 5.27505 127.09821 30866 ft 454 kts 141°
2026-05-05 19:38 5.22461 127.13731 30866 ft 454 kts 141°
2026-05-05 19:39 5.17366 127.17677 30866 ft 455 kts 141°
2026-05-05 19:39 5.12311 127.21591 30866 ft 456 kts 141°
2026-05-05 19:40 5.07230 127.25522 30867 ft 455 kts 140°
2026-05-05 19:40 5.02213 127.29417 30872 ft 445 kts 141°
2026-05-05 19:41 4.97287 127.33229 30869 ft 440 kts 141°
2026-05-05 19:41 4.92408 127.37001 30867 ft 438 kts 141°
2026-05-05 19:42 4.87520 127.40780 30867 ft 437 kts 141°
2026-05-05 19:42 4.82658 127.44538 30867 ft 437 kts 141°
2026-05-05 19:43 4.77765 127.48321 30866 ft 437 kts 141°
2026-05-05 19:43 4.72883 127.52095 30866 ft 437 kts 141°
2026-05-05 19:44 4.68006 127.55864 30866 ft 437 kts 141°
2026-05-05 19:44 4.63127 127.59634 30866 ft 437 kts 141°
2026-05-05 19:45 4.58235 127.63414 30866 ft 437 kts 141°
2026-05-05 19:45 4.53353 127.67184 30867 ft 437 kts 141°
2026-05-05 19:46 4.48477 127.70951 30867 ft 437 kts 141°
2026-05-05 19:46 4.43581 127.74731 30866 ft 437 kts 141°
2026-05-05 19:47 4.38723 127.78481 30866 ft 437 kts 141°
2026-05-05 19:47 4.33818 127.82267 30867 ft 437 kts 141°
2026-05-05 19:48 4.28958 127.86018 30867 ft 437 kts 141°
2026-05-05 19:48 4.24093 127.89771 30866 ft 437 kts 141°
2026-05-05 19:49 4.19196 127.93549 30866 ft 437 kts 141°
2026-05-05 19:49 4.14310 127.97316 30866 ft 437 kts 141°
2026-05-05 19:50 4.09419 128.01086 30866 ft 437 kts 142°
2026-05-05 19:50 4.04547 128.04842 30866 ft 437 kts 141°
2026-05-05 19:51 3.99657 128.08609 30866 ft 437 kts 142°
2026-05-05 19:51 3.94741 128.12349 30866 ft 437 kts 142°
2026-05-05 19:52 3.89819 128.16078 30867 ft 437 kts 142°
2026-05-05 19:52 3.84887 128.19815 30867 ft 437 kts 142°
2026-05-05 19:53 3.79970 128.23540 30866 ft 437 kts 142°
2026-05-05 19:53 3.75081 128.27245 30866 ft 437 kts 142°
2026-05-05 19:54 3.70163 128.30968 30867 ft 437 kts 142°
2026-05-05 19:54 3.65255 128.34686 30866 ft 437 kts 142°
2026-05-05 19:55 3.60351 128.38400 30866 ft 437 kts 142°
2026-05-05 19:55 3.55461 128.42102 30866 ft 437 kts 142°
2026-05-05 19:56 3.50573 128.45804 30866 ft 437 kts 142°
2026-05-05 19:56 3.45648 128.49532 30866 ft 438 kts 142°
2026-05-05 19:57 3.40741 128.53245 30867 ft 438 kts 142°
2026-05-05 19:57 3.35813 128.56975 30866 ft 437 kts 142°
2026-05-05 19:58 3.30925 128.60673 30866 ft 438 kts 142°
2026-05-05 19:58 3.26013 128.64391 30866 ft 438 kts 142°
2026-05-05 19:59 3.21091 128.68114 30867 ft 438 kts 142°
2026-05-05 19:59 3.16181 128.71828 30867 ft 438 kts 142°
2026-05-05 20:00 3.11260 128.75549 30866 ft 438 kts 142°
2026-05-05 20:00 3.06331 128.79277 30866 ft 438 kts 142°
2026-05-05 20:01 3.01400 128.83005 30866 ft 438 kts 142°
2026-05-05 20:01 2.96486 128.86719 30866 ft 440 kts 142°
2026-05-05 20:02 2.91501 128.90472 30863 ft 448 kts 141°
2026-05-05 20:02 2.86406 128.94331 30866 ft 455 kts 141°
2026-05-05 20:03 2.81298 128.98193 30866 ft 455 kts 141°
2026-05-05 20:03 2.76193 129.02052 30867 ft 455 kts 140°
2026-05-05 20:04 2.71075 129.05919 30867 ft 455 kts 140°
2026-05-05 20:04 2.65967 129.09778 30867 ft 455 kts 140°
2026-05-05 20:05 2.60832 129.13657 30867 ft 455 kts 140°
2026-05-05 20:05 2.55705 129.17531 30867 ft 455 kts 140°
2026-05-05 20:06 2.50581 129.21400 30867 ft 455 kts 140°
2026-05-05 20:06 2.45472 129.25259 30867 ft 455 kts 140°
2026-05-05 20:07 2.40373 129.29109 30867 ft 455 kts 140°
2026-05-05 20:07 2.35317 129.32927 30867 ft 455 kts 140°
2026-05-05 20:08 2.30205 129.36786 30867 ft 455 kts 140°
2026-05-05 20:08 2.25110 129.40633 30867 ft 455 kts 140°
2026-05-05 20:09 2.19989 129.44496 30867 ft 455 kts 140°
2026-05-05 20:09 2.14865 129.48364 30867 ft 455 kts 140°
2026-05-05 20:10 2.09732 129.52237 30867 ft 455 kts 140°
2026-05-05 20:10 2.04633 129.56084 30867 ft 455 kts 140°
2026-05-05 20:11 1.99530 129.59932 30867 ft 455 kts 140°
2026-05-05 20:11 1.94431 129.63812 30867 ft 455 kts 139°
2026-05-05 20:12 1.89453 129.67813 30867 ft 454 kts 139°
2026-05-05 20:12 1.84450 129.71851 30867 ft 454 kts 139°
2026-05-05 20:13 1.79491 129.75836 30867 ft 454 kts 139°
2026-05-05 20:13 1.74479 129.79858 30867 ft 454 kts 139°
2026-05-05 20:14 1.69507 129.83844 30867 ft 454 kts 139°
2026-05-05 20:14 1.64496 129.87860 30867 ft 454 kts 139°
2026-05-05 20:15 1.59521 129.91847 30867 ft 454 kts 139°
2026-05-05 20:15 1.54533 129.95844 30867 ft 454 kts 139°
2026-05-05 20:16 1.49537 129.99847 30867 ft 454 kts 139°
2026-05-05 20:16 1.44535 130.03854 30867 ft 454 kts 139°
2026-05-05 20:17 1.39555 130.07843 30867 ft 454 kts 139°
2026-05-05 20:17 1.34547 130.11856 30867 ft 454 kts 139°
2026-05-05 20:18 1.29574 130.15840 30867 ft 454 kts 139°
2026-05-05 20:18 1.24568 130.19849 30867 ft 454 kts 139°
2026-05-05 20:19 1.19567 130.23856 30867 ft 454 kts 139°
2026-05-05 20:19 1.14599 130.27835 30867 ft 454 kts 139°
2026-05-05 20:20 1.09603 130.31836 30867 ft 454 kts 139°
2026-05-05 20:20 1.04626 130.35822 30867 ft 454 kts 139°
2026-05-05 20:21 0.99628 130.39824 30867 ft 454 kts 139°
2026-05-05 20:21 0.94633 130.43823 30867 ft 454 kts 139°
2026-05-05 20:22 0.89636 130.47826 30867 ft 454 kts 139°
2026-05-05 20:22 0.84635 130.51829 30867 ft 454 kts 139°
2026-05-05 20:23 0.79669 130.55806 30866 ft 454 kts 139°
2026-05-05 20:23 0.74689 130.59792 30867 ft 454 kts 139°
2026-05-05 20:24 0.69686 130.63798 30867 ft 454 kts 139°
2026-05-05 20:24 0.64689 130.67799 30867 ft 454 kts 139°
2026-05-05 20:25 0.59691 130.71802 30867 ft 454 kts 139°
2026-05-05 20:25 0.54706 130.75794 30867 ft 454 kts 139°
2026-05-05 20:26 0.49703 130.79797 30867 ft 454 kts 139°
2026-05-05 20:26 0.44748 130.83765 30866 ft 454 kts 139°
2026-05-05 20:27 0.39731 130.87781 30866 ft 455 kts 139°
2026-05-05 20:27 0.34726 130.91786 30866 ft 455 kts 139°
2026-05-05 20:28 0.29707 130.95805 30866 ft 456 kts 139°
2026-05-05 20:28 0.24701 130.99812 30866 ft 456 kts 139°
2026-05-05 20:29 0.19691 131.03822 30866 ft 457 kts 138°
2026-05-05 20:29 0.14656 131.07854 30867 ft 457 kts 138°
2026-05-05 20:30 0.09588 131.11911 30867 ft 457 kts 138°
2026-05-05 20:30 0.04591 131.15912 30866 ft 457 kts 138°
2026-05-05 20:31 -0.00458 131.19952 30867 ft 457 kts 138°
2026-05-05 20:31 -0.05464 131.23961 30866 ft 457 kts 138°
2026-05-05 20:32 -0.10491 131.27985 30866 ft 457 kts 138°
2026-05-05 20:32 -0.15508 131.32001 30866 ft 457 kts 138°
2026-05-05 20:33 -0.20525 131.36017 30866 ft 457 kts 138°
2026-05-05 20:33 -0.25572 131.40056 30867 ft 457 kts 138°
2026-05-05 20:34 -0.30566 131.44054 30866 ft 457 kts 138°
2026-05-05 20:34 -0.35614 131.48096 30866 ft 457 kts 138°
2026-05-05 20:35 -0.40637 131.52116 30867 ft 457 kts 138°
2026-05-05 20:35 -0.45649 131.56128 30866 ft 457 kts 138°
2026-05-05 20:36 -0.50694 131.60169 30867 ft 457 kts 138°
2026-05-05 20:36 -0.55700 131.64175 30867 ft 457 kts 138°
2026-05-05 20:37 -0.60731 131.68202 30867 ft 457 kts 138°
2026-05-05 20:37 -0.65723 131.72198 30867 ft 457 kts 138°
2026-05-05 20:38 -0.70755 131.76228 30867 ft 457 kts 138°
2026-05-05 20:38 -0.75782 131.80254 30866 ft 457 kts 138°
2026-05-05 20:39 -0.80793 131.84267 30867 ft 457 kts 138°
2026-05-05 20:39 -0.85840 131.88307 30866 ft 457 kts 138°
2026-05-05 20:40 -0.90845 131.92314 30867 ft 457 kts 138°
2026-05-05 20:40 -0.95886 131.96352 30867 ft 457 kts 138°
2026-05-05 20:41 -1.00911 132.00375 30867 ft 457 kts 139°
2026-05-05 20:41 -1.05946 132.04408 30867 ft 456 kts 139°
2026-05-05 20:42 -1.10945 132.08412 30866 ft 455 kts 139°
2026-05-05 20:42 -1.15946 132.12416 30867 ft 455 kts 139°
2026-05-05 20:43 -1.20968 132.16438 30867 ft 455 kts 139°
2026-05-05 20:43 -1.25937 132.20419 30867 ft 455 kts 139°
2026-05-05 20:44 -1.30949 132.24434 30867 ft 455 kts 139°
2026-05-05 20:44 -1.35973 132.28458 30867 ft 455 kts 139°
2026-05-05 20:45 -1.43444 132.34444 30867 ft 455 kts 139°
2026-05-05 20:45 -1.48476 132.38475 30867 ft 455 kts 139°
2026-05-05 20:46 -1.53487 132.42490 30866 ft 455 kts 139°
2026-05-05 20:46 -1.58448 132.46464 30866 ft 455 kts 139°
2026-05-05 20:47 -1.63427 132.50455 30867 ft 455 kts 139°
2026-05-05 20:47 -1.68428 132.54463 30867 ft 455 kts 139°
2026-05-05 20:48 -1.73457 132.58493 30867 ft 455 kts 139°
2026-05-05 20:48 -1.78438 132.62485 30867 ft 454 kts 139°
2026-05-05 20:49 -1.83428 132.66486 30867 ft 454 kts 139°
2026-05-05 20:49 -1.88417 132.70483 30867 ft 454 kts 139°
2026-05-05 20:50 -1.93410 132.74486 30867 ft 454 kts 139°
2026-05-05 20:50 -1.98403 132.78488 30867 ft 454 kts 139°
2026-05-05 20:51 -2.03369 132.82471 30867 ft 454 kts 139°
2026-05-05 20:51 -2.08377 132.86487 30867 ft 454 kts 139°
2026-05-05 20:52 -2.13324 132.90454 30866 ft 454 kts 139°
2026-05-05 20:52 -2.18314 132.94455 30866 ft 453 kts 139°
2026-05-05 20:53 -2.23275 132.98434 30866 ft 453 kts 139°
2026-05-05 20:53 -2.28267 133.02440 30866 ft 454 kts 139°
2026-05-05 20:54 -2.33239 133.06429 30866 ft 454 kts 139°
2026-05-05 20:54 -2.38261 133.10457 30866 ft 454 kts 139°
2026-05-05 20:55 -2.43225 133.14439 30866 ft 454 kts 139°
2026-05-05 20:55 -2.48235 133.18460 30866 ft 454 kts 139°
2026-05-05 20:56 -2.53220 133.22459 30866 ft 454 kts 139°
2026-05-05 20:56 -2.58233 133.26483 30867 ft 454 kts 139°
2026-05-05 20:57 -2.63227 133.30492 30866 ft 454 kts 139°
2026-05-05 20:57 -2.68214 133.34494 30867 ft 454 kts 139°
2026-05-05 20:58 -2.73204 133.38500 30867 ft 454 kts 139°
2026-05-05 20:58 -2.78157 133.42476 30867 ft 454 kts 139°
2026-05-05 20:59 -2.83165 133.46497 30867 ft 454 kts 139°
2026-05-05 20:59 -2.88117 133.50473 30867 ft 453 kts 139°
2026-05-05 21:00 -2.93099 133.54474 30868 ft 453 kts 139°
2026-05-05 21:00 -2.98075 133.58470 30868 ft 452 kts 139°
2026-05-05 21:01 -3.03066 133.62383 30867 ft 451 kts 141°
2026-05-05 21:01 -3.08154 133.66202 30868 ft 451 kts 141°
2026-05-05 21:02 -3.13233 133.70012 30867 ft 451 kts 141°
2026-05-05 21:02 -3.18320 133.73839 30867 ft 450 kts 141°
2026-05-05 21:03 -3.23366 133.77643 30867 ft 450 kts 141°
2026-05-05 21:03 -3.28458 133.81482 30866 ft 450 kts 141°
2026-05-05 21:04 -3.33518 133.85298 30867 ft 450 kts 141°
2026-05-05 21:04 -3.38580 133.89117 30867 ft 450 kts 141°
2026-05-05 21:05 -3.43634 133.92931 30867 ft 450 kts 141°
2026-05-05 21:05 -3.48675 133.96735 30867 ft 450 kts 141°
2026-05-05 21:06 -3.53748 134.00565 30866 ft 450 kts 141°
2026-05-05 21:06 -3.58811 134.04387 30867 ft 450 kts 141°
2026-05-05 21:07 -3.63832 134.08177 30866 ft 450 kts 141°
2026-05-05 21:07 -3.68903 134.12006 30867 ft 449 kts 141°
2026-05-05 21:08 -3.73969 134.15831 30866 ft 449 kts 141°
2026-05-05 21:08 -3.79012 134.19641 30867 ft 449 kts 141°
2026-05-05 21:09 -3.84060 134.23454 30867 ft 449 kts 141°
2026-05-05 21:09 -3.89121 134.27278 30867 ft 449 kts 141°
2026-05-05 21:10 -3.94179 134.31100 30866 ft 449 kts 141°
2026-05-05 21:10 -3.99238 134.34924 30867 ft 449 kts 141°
2026-05-05 21:11 -4.04270 134.38728 30866 ft 449 kts 141°
2026-05-05 21:11 -4.09309 134.42537 30866 ft 449 kts 141°
2026-05-05 21:12 -4.14235 134.46263 30867 ft 449 kts 141°
2026-05-05 21:12 -4.19269 134.50069 30877 ft 449 kts 141°
2026-05-05 21:13 -4.24285 134.53862 30887 ft 448 kts 141°
2026-05-05 21:13 -4.29346 134.57690 30892 ft 448 kts 141°
2026-05-05 21:14 -4.34380 134.61499 30893 ft 448 kts 141°
2026-05-05 21:14 -4.39396 134.65295 30893 ft 448 kts 141°
2026-05-05 21:15 -4.44429 134.69106 30893 ft 448 kts 141°
2026-05-05 21:15 -4.49471 134.72922 30893 ft 448 kts 141°
2026-05-05 21:16 -4.54458 134.76698 30893 ft 447 kts 141°
2026-05-05 21:16 -4.59520 134.80531 30893 ft 447 kts 141°
2026-05-05 21:17 -4.64517 134.84317 30893 ft 447 kts 141°
2026-05-05 21:17 -4.69577 134.88150 30893 ft 447 kts 141°
2026-05-05 21:18 -4.74585 134.91943 30893 ft 447 kts 141°
2026-05-05 21:18 -4.79615 134.95755 30893 ft 447 kts 141°
2026-05-05 21:19 -4.84649 134.99571 30893 ft 447 kts 141°
2026-05-05 21:19 -4.89667 135.03375 30893 ft 447 kts 141°
2026-05-05 21:20 -4.94684 135.07179 30893 ft 447 kts 141°
2026-05-05 21:20 -4.99690 135.10976 30892 ft 447 kts 141°
2026-05-05 21:21 -5.04707 135.14783 30891 ft 448 kts 141°
2026-05-05 21:21 -5.09753 135.18614 30892 ft 449 kts 141°
2026-05-05 21:22 -5.14814 135.22455 30892 ft 449 kts 141°
2026-05-05 21:22 -5.19862 135.26285 30893 ft 449 kts 141°
2026-05-05 21:23 -5.24903 135.30112 30893 ft 449 kts 141°
2026-05-05 21:23 -5.29968 135.33957 30893 ft 449 kts 141°
2026-05-05 21:24 -5.35015 135.37791 30893 ft 449 kts 141°
2026-05-05 21:24 -5.40053 135.41618 30893 ft 449 kts 141°
2026-05-05 21:25 -5.45128 135.45474 30893 ft 449 kts 141°
2026-05-05 21:25 -5.50143 135.49286 30893 ft 449 kts 141°
2026-05-05 21:26 -5.55173 135.53110 30893 ft 449 kts 141°
2026-05-05 21:26 -5.60221 135.56947 30893 ft 448 kts 141°
2026-05-05 21:27 -5.65249 135.60771 30893 ft 448 kts 141°
2026-05-05 21:27 -5.70273 135.64594 30893 ft 448 kts 141°
2026-05-05 21:28 -5.75322 135.68434 30893 ft 448 kts 141°
2026-05-05 21:28 -5.80356 135.72266 30893 ft 448 kts 141°
2026-05-05 21:29 -5.85349 135.76067 30893 ft 448 kts 141°
2026-05-05 21:29 -5.90390 135.79904 30893 ft 448 kts 141°
2026-05-05 21:30 -5.95414 135.83730 30893 ft 448 kts 141°
2026-05-05 21:30 -6.00440 135.87558 30893 ft 448 kts 141°
2026-05-05 21:31 -6.05473 135.91393 30893 ft 448 kts 141°
2026-05-05 21:31 -6.10505 135.95227 30893 ft 448 kts 141°
2026-05-05 21:32 -6.15508 135.99042 30893 ft 448 kts 141°
2026-05-05 21:32 -6.20565 136.02898 30893 ft 448 kts 141°
2026-05-05 21:33 -6.25566 136.06712 30893 ft 447 kts 141°
2026-05-05 21:33 -6.30567 136.10527 30893 ft 447 kts 141°
2026-05-05 21:34 -6.35574 136.14348 30893 ft 447 kts 141°
2026-05-05 21:34 -6.40620 136.18198 30893 ft 447 kts 141°
2026-05-05 21:35 -6.45638 136.22029 30893 ft 447 kts 141°
2026-05-05 21:35 -6.50631 136.25842 30893 ft 447 kts 141°
2026-05-05 21:36 -6.55647 136.29672 30893 ft 447 kts 141°
2026-05-05 21:36 -6.60639 136.33487 30893 ft 447 kts 141°
2026-05-05 21:37 -6.65644 136.37312 30893 ft 447 kts 141°
2026-05-05 21:37 -6.70669 136.41153 30893 ft 446 kts 141°
2026-05-05 21:38 -6.75688 136.44991 30894 ft 446 kts 141°
2026-05-05 21:38 -6.80697 136.48822 30903 ft 446 kts 141°
2026-05-05 21:39 -6.85689 136.52641 30917 ft 446 kts 141°
2026-05-05 21:39 -6.90692 136.56468 30933 ft 446 kts 141°
2026-05-05 21:40 -6.95688 136.60290 30943 ft 445 kts 141°
2026-05-05 21:40 -7.00681 136.64113 30948 ft 444 kts 140°
2026-05-05 21:41 -7.05654 136.67921 30949 ft 444 kts 140°
2026-05-05 21:41 -7.10614 136.71721 30948 ft 443 kts 140°
2026-05-05 21:42 -7.15611 136.75551 30948 ft 443 kts 140°
2026-05-05 21:42 -7.20535 136.79326 30948 ft 443 kts 140°
2026-05-05 21:43 -7.25508 136.83141 30960 ft 443 kts 140°
2026-05-05 21:43 -7.30496 136.86966 30969 ft 443 kts 140°
2026-05-05 21:44 -7.35461 136.90776 30973 ft 444 kts 141°
2026-05-05 21:44 -7.40419 136.94582 30974 ft 444 kts 141°
2026-05-05 21:45 -7.45374 136.98384 30974 ft 444 kts 141°
2026-05-05 21:45 -7.50382 137.02229 30974 ft 444 kts 141°
2026-05-05 21:46 -7.55361 137.06053 30974 ft 445 kts 141°
2026-05-05 21:46 -7.60355 137.09889 30974 ft 444 kts 141°
2026-05-05 21:47 -7.65297 137.13686 30974 ft 444 kts 141°
2026-05-05 21:47 -7.70285 137.17520 30974 ft 444 kts 141°
2026-05-05 21:48 -7.75236 137.21327 30974 ft 444 kts 141°
2026-05-05 21:48 -7.80209 137.25153 30974 ft 444 kts 141°
2026-05-05 21:49 -7.85188 137.28984 30975 ft 444 kts 141°
2026-05-05 21:49 -7.90155 137.32806 30974 ft 444 kts 141°
2026-05-05 21:50 -7.95127 137.36635 30974 ft 444 kts 141°
2026-05-05 21:50 -8.00107 137.40469 30974 ft 444 kts 141°
2026-05-05 21:51 -8.05075 137.44298 30974 ft 444 kts 141°
2026-05-05 21:51 -8.10054 137.48134 30974 ft 443 kts 141°
2026-05-05 21:52 -8.17498 137.53873 30974 ft 443 kts 141°
2026-05-05 21:53 -8.22430 137.57675 30974 ft 443 kts 141°
2026-05-05 21:53 -8.27396 137.61507 30974 ft 443 kts 141°
2026-05-05 21:54 -8.32341 137.65323 30975 ft 443 kts 141°
2026-05-05 21:54 -8.37269 137.69127 30974 ft 443 kts 141°
2026-05-05 21:55 -8.42243 137.72969 30974 ft 442 kts 141°
2026-05-05 21:55 -8.47158 137.76765 30974 ft 442 kts 141°
2026-05-05 21:56 -8.52137 137.80612 30974 ft 442 kts 141°
2026-05-05 21:56 -8.57076 137.84430 30974 ft 442 kts 141°
2026-05-05 21:57 -8.62021 137.88254 30974 ft 442 kts 141°
2026-05-05 21:57 -8.66973 137.92082 30974 ft 442 kts 141°
2026-05-05 21:58 -8.71931 137.95918 30974 ft 442 kts 141°
2026-05-05 21:58 -8.76859 137.99730 30974 ft 442 kts 141°
2026-05-05 21:59 -8.81775 138.03536 30974 ft 442 kts 141°
2026-05-05 21:59 -8.86608 138.07513 30974 ft 441 kts 136°
2026-05-05 22:00 -8.91069 138.11865 30975 ft 441 kts 134°
2026-05-05 22:00 -8.95516 138.16295 30974 ft 441 kts 134°
2026-05-05 22:01 -8.99923 138.20682 30975 ft 440 kts 134°
2026-05-05 22:01 -9.04345 138.25082 30975 ft 440 kts 134°
2026-05-05 22:02 -9.08748 138.29460 30974 ft 439 kts 135°
2026-05-05 22:02 -9.13171 138.33858 30974 ft 440 kts 135°
2026-05-05 22:03 -9.17589 138.38248 30974 ft 440 kts 135°
2026-05-05 22:03 -9.22000 138.42633 30974 ft 440 kts 135°
2026-05-05 22:04 -9.26416 138.47029 30974 ft 440 kts 135°
2026-05-05 22:04 -9.30812 138.51405 30974 ft 439 kts 135°
2026-05-05 22:05 -9.35224 138.55800 30974 ft 439 kts 135°
2026-05-05 22:05 -9.39638 138.60197 30974 ft 439 kts 135°
2026-05-05 22:06 -9.44024 138.64571 30974 ft 439 kts 135°
2026-05-05 22:06 -9.48414 138.68947 30975 ft 439 kts 135°
2026-05-05 22:07 -9.52807 138.73329 30975 ft 439 kts 135°
2026-05-05 22:07 -9.57234 138.77748 30975 ft 439 kts 135°
2026-05-05 22:08 -9.61617 138.82123 30974 ft 439 kts 135°
2026-05-05 22:08 -9.66028 138.86528 30974 ft 439 kts 135°
2026-05-05 22:09 -9.70437 138.90933 30975 ft 439 kts 135°
2026-05-05 22:09 -9.74835 138.95329 30974 ft 438 kts 135°
2026-05-05 22:10 -9.79228 138.99721 30974 ft 438 kts 135°
2026-05-05 22:10 -9.83629 139.04123 30972 ft 438 kts 135°
2026-05-05 22:11 -9.87991 139.08487 30968 ft 439 kts 135°
2026-05-05 22:11 -9.92394 139.12897 30964 ft 439 kts 135°
2026-05-05 22:12 -9.96809 139.17317 30959 ft 439 kts 135°
2026-05-05 22:12 -10.01217 139.21733 30954 ft 439 kts 135°
2026-05-05 22:13 -10.05586 139.26112 30951 ft 438 kts 135°
2026-05-05 22:13 -10.09980 139.30519 30950 ft 439 kts 135°
2026-05-05 22:14 -10.14378 139.34930 30950 ft 439 kts 135°
2026-05-05 22:14 -10.18765 139.39333 30950 ft 439 kts 135°
2026-05-05 22:15 -10.23147 139.43730 30950 ft 439 kts 135°
2026-05-05 22:15 -10.27558 139.48161 30950 ft 438 kts 135°
2026-05-05 22:16 -10.31924 139.52548 30950 ft 438 kts 135°
2026-05-05 22:16 -10.36290 139.56935 30950 ft 437 kts 135°
2026-05-05 22:17 -10.40669 139.61339 30950 ft 437 kts 135°
2026-05-05 22:17 -10.45040 139.65736 30950 ft 437 kts 135°
2026-05-05 22:18 -10.49416 139.70140 30950 ft 437 kts 134°
2026-05-05 22:18 -10.53796 139.74550 30950 ft 437 kts 135°
2026-05-05 22:19 -10.58142 139.78928 30950 ft 437 kts 134°
2026-05-05 22:19 -10.62509 139.83327 30950 ft 437 kts 135°
2026-05-05 22:20 -10.66877 139.87729 30950 ft 437 kts 135°
2026-05-05 22:20 -10.71215 139.92104 30950 ft 437 kts 134°
2026-05-05 22:21 -10.75597 139.96524 30950 ft 437 kts 134°
2026-05-05 22:21 -10.79967 140.00935 30950 ft 437 kts 135°
2026-05-05 22:22 -10.84331 140.05339 30950 ft 437 kts 135°
2026-05-05 22:22 -10.88706 140.09758 30949 ft 437 kts 134°
2026-05-05 22:23 -10.93097 140.14192 30947 ft 438 kts 134°
2026-05-05 22:23 -10.97482 140.18633 30948 ft 441 kts 135°
2026-05-05 22:24 -11.01918 140.23141 30949 ft 443 kts 135°
2026-05-05 22:24 -11.06298 140.27593 30951 ft 438 kts 136°
2026-05-05 22:25 -11.10671 140.32022 30950 ft 438 kts 136°
2026-05-05 22:25 -11.15031 140.36441 30950 ft 438 kts 136°
2026-05-05 22:26 -11.19399 140.40871 30950 ft 438 kts 136°
2026-05-05 22:26 -11.23758 140.45297 30950 ft 437 kts 136°
2026-05-05 22:27 -11.28117 140.49725 30950 ft 437 kts 136°
2026-05-05 22:27 -11.32469 140.54149 30950 ft 437 kts 136°
2026-05-05 22:28 -11.36834 140.58586 30950 ft 437 kts 136°
2026-05-05 22:28 -11.41192 140.63020 30950 ft 437 kts 136°
2026-05-05 22:29 -11.45530 140.67435 30949 ft 437 kts 136°
2026-05-05 22:29 -11.49885 140.71869 30950 ft 437 kts 136°
2026-05-05 22:30 -11.54230 140.76296 30950 ft 437 kts 136°
2026-05-05 22:30 -11.58558 140.80705 30950 ft 437 kts 136°
2026-05-05 22:31 -11.62924 140.85156 30950 ft 437 kts 136°
2026-05-05 22:31 -11.67261 140.89581 30950 ft 437 kts 136°
2026-05-05 22:32 -11.71604 140.94012 30949 ft 436 kts 136°
2026-05-05 22:32 -11.75955 140.98456 30949 ft 436 kts 136°
2026-05-05 22:33 -11.80320 141.02913 30950 ft 436 kts 136°
2026-05-05 22:33 -11.84676 141.07365 30950 ft 437 kts 136°
2026-05-05 22:34 -11.89026 141.11813 30950 ft 437 kts 136°
2026-05-05 22:34 -11.93390 141.16278 30950 ft 437 kts 136°
2026-05-05 22:35 -11.97790 141.20781 30950 ft 437 kts 136°
2026-05-05 22:35 -12.02169 141.25267 30950 ft 438 kts 136°
2026-05-05 22:36 -12.06555 141.29759 30950 ft 438 kts 136°
2026-05-05 22:36 -12.10911 141.34224 30950 ft 438 kts 136°
2026-05-05 22:37 -12.15285 141.38709 30950 ft 438 kts 136°
2026-05-05 22:37 -12.19668 141.43205 30950 ft 438 kts 136°
2026-05-05 22:38 -12.24044 141.47697 30950 ft 438 kts 136°
2026-05-05 22:38 -12.28432 141.52203 30950 ft 438 kts 136°
2026-05-05 22:39 -12.32830 141.56722 30950 ft 438 kts 136°
2026-05-05 22:39 -12.37225 141.61238 30950 ft 438 kts 136°
2026-05-05 22:40 -12.41602 141.65741 30949 ft 438 kts 136°
2026-05-05 22:40 -12.45964 141.70229 30950 ft 438 kts 136°
2026-05-05 22:41 -12.50366 141.74760 30950 ft 438 kts 136°
2026-05-05 22:41 -12.54519 141.79038 30950 ft 438 kts 136°
2026-05-05 22:42 -12.58884 141.83531 30950 ft 438 kts 136°
2026-05-05 22:42 -12.63260 141.88042 30950 ft 438 kts 136°
2026-05-05 22:43 -12.67681 141.92525 30949 ft 438 kts 139°
2026-05-05 22:43 -12.72345 141.96735 30950 ft 437 kts 140°
2026-05-05 22:44 -12.77039 142.00909 30950 ft 438 kts 140°
2026-05-05 22:44 -12.81709 142.05070 30950 ft 438 kts 140°
2026-05-05 22:45 -12.86413 142.09268 30950 ft 438 kts 140°
2026-05-05 22:45 -12.91068 142.13425 30950 ft 438 kts 140°
2026-05-05 22:46 -12.95752 142.17610 30950 ft 438 kts 140°
2026-05-05 22:46 -13.00372 142.21742 30949 ft 439 kts 140°
2026-05-05 22:47 -13.05045 142.25925 30949 ft 440 kts 141°
2026-05-05 22:47 -13.09767 142.30153 30949 ft 441 kts 141°
2026-05-05 22:48 -13.14476 142.34366 30950 ft 443 kts 141°
2026-05-05 22:48 -13.19195 142.38588 30950 ft 443 kts 141°
2026-05-05 22:49 -13.23928 142.42827 30950 ft 443 kts 141°
2026-05-05 22:49 -13.28642 142.47052 30950 ft 443 kts 141°
2026-05-05 22:50 -13.33366 142.51289 30950 ft 443 kts 141°
2026-05-05 22:50 -13.38073 142.55518 30950 ft 443 kts 141°
2026-05-05 22:51 -13.42840 142.59805 30950 ft 443 kts 141°
2026-05-05 22:51 -13.47593 142.64079 30950 ft 443 kts 141°
2026-05-05 22:52 -13.52334 142.68344 30949 ft 443 kts 141°
2026-05-05 22:52 -13.57092 142.72626 30950 ft 443 kts 141°
2026-05-05 22:53 -13.61809 142.76872 30950 ft 443 kts 141°
2026-05-05 22:53 -13.66573 142.81163 30950 ft 443 kts 141°
2026-05-05 22:54 -13.71319 142.85442 30950 ft 444 kts 141°
2026-05-05 22:54 -13.76059 142.89716 30950 ft 444 kts 141°
2026-05-05 22:55 -13.80829 142.94020 30950 ft 444 kts 141°
2026-05-05 22:55 -13.85607 142.98334 30950 ft 444 kts 141°
2026-05-05 22:56 -13.90353 143.02620 30950 ft 444 kts 141°
2026-05-05 22:56 -13.95111 143.06921 30950 ft 444 kts 141°
2026-05-05 22:57 -13.99819 143.11179 30950 ft 444 kts 141°
2026-05-05 22:57 -14.04537 143.15449 30950 ft 443 kts 141°
2026-05-05 22:58 -14.09305 143.19766 30950 ft 442 kts 141°
2026-05-05 22:58 -14.14054 143.24068 30954 ft 442 kts 141°
2026-05-05 22:59 -14.18740 143.28314 30968 ft 442 kts 141°
2026-05-05 22:59 -14.23441 143.32577 30990 ft 442 kts 141°
2026-05-05 23:00 -14.30564 143.39043 31019 ft 441 kts 141°
2026-05-05 23:00 -14.35254 143.43303 31026 ft 441 kts 141°
2026-05-05 23:01 -14.39948 143.47569 31028 ft 441 kts 141°
2026-05-05 23:01 -14.44645 143.51839 31029 ft 441 kts 141°
2026-05-05 23:02 -14.49353 143.56123 31029 ft 441 kts 141°
2026-05-05 23:02 -14.54066 143.60414 31029 ft 441 kts 141°
2026-05-05 23:03 -14.58760 143.64690 31029 ft 441 kts 141°
2026-05-05 23:03 -14.63433 143.68948 31029 ft 441 kts 141°
2026-05-05 23:04 -14.68140 143.73241 31029 ft 441 kts 141°
2026-05-05 23:04 -14.72851 143.77539 31029 ft 441 kts 141°
2026-05-05 23:05 -14.77563 143.81841 31029 ft 441 kts 141°
2026-05-05 23:05 -14.82230 143.86104 31029 ft 441 kts 141°
2026-05-05 23:06 -14.86911 143.90382 31029 ft 441 kts 141°
2026-05-05 23:06 -14.91584 143.94658 31028 ft 441 kts 141°
2026-05-05 23:07 -14.96263 143.98940 31028 ft 442 kts 142°
2026-05-05 23:07 -15.00992 144.03279 31028 ft 442 kts 142°
2026-05-05 23:08 -15.05724 144.07636 31028 ft 444 kts 142°
2026-05-05 23:08 -15.10473 144.11999 31029 ft 444 kts 142°
2026-05-05 23:09 -15.14682 144.15872 31029 ft 444 kts 142°
2026-05-05 23:09 -15.18140 144.19054 31029 ft 444 kts 142°
2026-05-05 23:10 -15.22922 144.23457 31029 ft 444 kts 142°
2026-05-05 23:10 -15.27663 144.27826 31029 ft 444 kts 142°
2026-05-05 23:11 -15.32391 144.32185 31029 ft 444 kts 142°
2026-05-05 23:11 -15.37107 144.36536 31029 ft 444 kts 142°
2026-05-05 23:12 -15.41861 144.40926 31029 ft 444 kts 142°
2026-05-05 23:12 -15.46600 144.45303 31029 ft 444 kts 142°
2026-05-05 23:13 -15.51313 144.49660 31029 ft 444 kts 142°
2026-05-05 23:13 -15.56035 144.54028 31029 ft 444 kts 142°
2026-05-05 23:14 -15.60774 144.58415 31029 ft 444 kts 142°
2026-05-05 23:14 -15.65432 144.62729 31029 ft 444 kts 142°
2026-05-05 23:15 -15.70106 144.67061 31028 ft 444 kts 142°
2026-05-05 23:15 -15.74777 144.71391 31029 ft 444 kts 142°
2026-05-05 23:16 -15.79424 144.75705 31029 ft 444 kts 142°
2026-05-05 23:16 -15.84081 144.80028 31029 ft 444 kts 142°
2026-05-05 23:17 -15.88763 144.84378 31029 ft 444 kts 142°
2026-05-05 23:17 -15.93412 144.88701 31029 ft 444 kts 142°
2026-05-05 23:18 -15.98082 144.93045 31029 ft 444 kts 142°
2026-05-05 23:18 -16.02725 144.97366 31029 ft 444 kts 142°
2026-05-05 23:19 -16.07400 145.01721 31029 ft 444 kts 142°
2026-05-05 23:19 -16.12051 145.06056 31030 ft 443 kts 142°
2026-05-05 23:20 -16.16688 145.10379 31030 ft 442 kts 142°
2026-05-05 23:20 -16.21338 145.14719 31029 ft 442 kts 142°
2026-05-05 23:21 -16.25949 145.19026 31029 ft 441 kts 142°
2026-05-05 23:21 -16.30570 145.23347 31029 ft 441 kts 142°
2026-05-05 23:22 -16.35189 145.27666 31029 ft 441 kts 142°
2026-05-05 23:22 -16.39799 145.31978 31030 ft 440 kts 142°
2026-05-05 23:23 -16.44426 145.36308 31030 ft 441 kts 142°
2026-05-05 23:23 -16.49027 145.40619 31029 ft 441 kts 142°
2026-05-05 23:24 -16.53670 145.44968 31029 ft 441 kts 142°
2026-05-05 23:24 -16.58293 145.49303 31029 ft 441 kts 142°
2026-05-05 23:25 -16.62910 145.53636 31028 ft 441 kts 142°
2026-05-05 23:25 -16.67514 145.57959 31029 ft 441 kts 142°
2026-05-05 23:26 -16.72123 145.62288 31029 ft 441 kts 142°
2026-05-05 23:26 -16.76765 145.66652 31027 ft 441 kts 142°
2026-05-05 23:27 -16.81359 145.70973 31029 ft 441 kts 142°
2026-05-05 23:27 -16.86129 145.75122 31029 ft 438 kts 148°
2026-05-05 23:28 -16.91195 145.78748 31030 ft 437 kts 151°
2026-05-05 23:28 -16.96308 145.82294 31028 ft 437 kts 151°
2026-05-05 23:29 -17.01439 145.85861 31030 ft 436 kts 151°
2026-05-05 23:29 -17.06546 145.89420 31030 ft 436 kts 151°
2026-05-05 23:30 -17.11636 145.92970 31031 ft 435 kts 151°
2026-05-05 23:30 -17.16743 145.96533 31030 ft 434 kts 151°
2026-05-05 23:31 -17.21845 146.00096 31029 ft 434 kts 151°
2026-05-05 23:31 -17.26930 146.03651 31029 ft 434 kts 151°
2026-05-05 23:32 -17.32019 146.07211 31029 ft 434 kts 151°
2026-05-05 23:32 -17.37079 146.10753 31029 ft 434 kts 151°
2026-05-05 23:33 -17.42158 146.14310 31029 ft 434 kts 151°
2026-05-05 23:33 -17.47247 146.17877 31029 ft 434 kts 151°
2026-05-05 23:34 -17.52317 146.21433 31029 ft 433 kts 151°
2026-05-05 23:34 -17.57382 146.24988 31029 ft 434 kts 151°
2026-05-05 23:35 -17.62469 146.28561 31029 ft 434 kts 151°
2026-05-05 23:35 -17.67540 146.32126 31029 ft 434 kts 151°
2026-05-05 23:36 -17.72598 146.35683 31029 ft 434 kts 151°
2026-05-05 23:36 -17.77672 146.39255 31029 ft 434 kts 151°
2026-05-05 23:37 -17.82738 146.42822 31029 ft 434 kts 151°
2026-05-05 23:37 -17.87806 146.46394 31029 ft 434 kts 151°
2026-05-05 23:38 -17.92852 146.49953 31027 ft 433 kts 151°
2026-05-05 23:38 -17.97920 146.53529 31023 ft 432 kts 151°
2026-05-05 23:39 -18.02959 146.57088 31018 ft 432 kts 151°
2026-05-05 23:39 -18.08019 146.60664 31014 ft 432 kts 151°
2026-05-05 23:40 -18.13064 146.64232 31013 ft 431 kts 151°
2026-05-05 23:40 -18.18118 146.67807 31011 ft 431 kts 151°
2026-05-05 23:41 -18.23142 146.71364 31011 ft 431 kts 151°
2026-05-05 23:41 -18.28160 146.74919 31011 ft 431 kts 151°
2026-05-05 23:42 -18.33206 146.78497 31011 ft 431 kts 151°
2026-05-05 23:42 -18.38388 146.81821 31012 ft 429 kts 155°
2026-05-05 23:43 -18.43673 146.84921 31011 ft 429 kts 156°
2026-05-05 23:43 -18.48947 146.88008 31012 ft 429 kts 156°
2026-05-05 23:44 -18.54209 146.91097 31011 ft 429 kts 156°
2026-05-05 23:44 -18.59514 146.94212 31011 ft 429 kts 156°
2026-05-05 23:45 -18.64787 146.97311 31011 ft 429 kts 156°
2026-05-05 23:45 -18.70061 147.00415 31011 ft 429 kts 156°
2026-05-05 23:46 -18.75326 147.03514 31029 ft 431 kts 156°
2026-05-05 23:46 -18.80627 147.06638 31046 ft 431 kts 156°
2026-05-05 23:47 -18.85917 147.09758 31054 ft 430 kts 156°
2026-05-05 23:47 -18.91167 147.12857 31056 ft 431 kts 156°
2026-05-05 23:48 -18.96496 147.16002 31056 ft 432 kts 156°
2026-05-05 23:48 -19.01786 147.19128 31056 ft 432 kts 156°
2026-05-05 23:49 -19.07094 147.22267 31057 ft 432 kts 156°
2026-05-05 23:49 -19.12034 147.25191 31058 ft 432 kts 156°
2026-05-05 23:50 -19.15058 147.26981 31057 ft 433 kts 156°
2026-05-05 23:50 -19.20353 147.30118 31057 ft 432 kts 156°
2026-05-05 23:51 -19.25677 147.33273 31058 ft 433 kts 156°
2026-05-05 23:51 -19.30974 147.36417 31058 ft 433 kts 156°
2026-05-05 23:52 -19.36302 147.39580 31057 ft 432 kts 156°
2026-05-05 23:52 -19.41611 147.42734 31057 ft 433 kts 156°
2026-05-05 23:53 -19.46909 147.45883 31057 ft 433 kts 156°
2026-05-05 23:53 -19.52218 147.49042 31057 ft 433 kts 156°
2026-05-05 23:54 -19.57537 147.52210 31058 ft 433 kts 156°
2026-05-05 23:54 -19.62857 147.55377 31057 ft 433 kts 156°
2026-05-05 23:55 -19.68178 147.58551 31058 ft 433 kts 156°
2026-05-05 23:55 -19.73470 147.61713 31057 ft 433 kts 156°
2026-05-05 23:56 -19.78788 147.64893 31057 ft 433 kts 156°
2026-05-05 23:56 -19.84109 147.68072 31057 ft 433 kts 156°
2026-05-05 23:57 -19.89417 147.71246 31057 ft 433 kts 156°
2026-05-05 23:57 -19.94716 147.74416 31057 ft 433 kts 156°
2026-05-05 23:58 -19.99989 147.77573 31057 ft 432 kts 156°
2026-05-05 23:58 -20.05346 147.80783 31057 ft 432 kts 156°
2026-05-05 23:59 -20.10656 147.83968 31058 ft 432 kts 156°
2026-05-05 23:59 -20.15969 147.87157 31058 ft 432 kts 156°
2026-05-06 00:00 -20.21260 147.90335 31057 ft 432 kts 156°
2026-05-06 00:00 -20.26550 147.93515 31057 ft 432 kts 156°
2026-05-06 00:01 -20.31880 147.96722 31057 ft 432 kts 156°
2026-05-06 00:01 -20.37162 147.99902 31057 ft 432 kts 156°
2026-05-06 00:02 -20.42492 148.03114 31057 ft 432 kts 156°
2026-05-06 00:02 -20.47759 148.06290 31057 ft 432 kts 156°
2026-05-06 00:03 -20.53074 148.09497 31057 ft 432 kts 156°
2026-05-06 00:03 -20.58365 148.12694 31058 ft 432 kts 156°
2026-05-06 00:04 -20.63633 148.15877 31057 ft 432 kts 156°
2026-05-06 00:04 -20.68949 148.19095 31057 ft 432 kts 156°
2026-05-06 00:05 -20.76889 148.23903 31057 ft 432 kts 156°
2026-05-06 00:06 -20.82167 148.27103 31057 ft 432 kts 156°
2026-05-06 00:06 -20.87460 148.30315 31057 ft 432 kts 156°
2026-05-06 00:07 -20.92772 148.33539 31057 ft 432 kts 156°
2026-05-06 00:07 -20.98055 148.36751 31056 ft 433 kts 156°
2026-05-06 00:08 -21.03393 148.39999 31056 ft 434 kts 156°
2026-05-06 00:08 -21.08691 148.43225 31056 ft 436 kts 156°
2026-05-06 00:09 -21.14062 148.46497 31057 ft 438 kts 156°
2026-05-06 00:09 -21.19399 148.49748 31057 ft 439 kts 156°
2026-05-06 00:10 -21.24809 148.53049 31057 ft 439 kts 156°
2026-05-06 00:10 -21.30163 148.56319 31057 ft 439 kts 156°
2026-05-06 00:11 -21.35510 148.59587 31057 ft 439 kts 156°
2026-05-06 00:11 -21.40891 148.62880 31057 ft 439 kts 156°
2026-05-06 00:12 -21.46231 148.66150 31055 ft 439 kts 156°
2026-05-06 00:12 -21.51620 148.69452 31057 ft 439 kts 156°
2026-05-06 00:13 -21.57006 148.72755 31057 ft 439 kts 156°
2026-05-06 00:13 -21.62376 148.76053 31057 ft 439 kts 156°
2026-05-06 00:14 -21.67757 148.79359 31057 ft 439 kts 156°
2026-05-06 00:14 -21.73110 148.82651 31057 ft 439 kts 156°
2026-05-06 00:15 -21.78513 148.85977 31058 ft 439 kts 156°
2026-05-06 00:15 -21.83863 148.89273 31057 ft 439 kts 156°
2026-05-06 00:16 -21.89219 148.92577 31057 ft 439 kts 156°
2026-05-06 00:16 -21.94570 148.95879 31057 ft 438 kts 156°
2026-05-06 00:17 -21.99945 148.99199 31057 ft 438 kts 156°
2026-05-06 00:17 -22.05344 149.02536 31057 ft 438 kts 156°
2026-05-06 00:18 -22.10668 149.05830 31058 ft 437 kts 157°
2026-05-06 00:18 -22.16009 149.09137 31061 ft 438 kts 156°
2026-05-06 00:19 -22.21365 149.12457 31067 ft 438 kts 156°
2026-05-06 00:19 -22.26720 149.15779 31075 ft 438 kts 157°
2026-05-06 00:20 -22.32063 149.19096 31081 ft 438 kts 157°
2026-05-06 00:20 -22.37458 149.22450 31083 ft 438 kts 157°
2026-05-06 00:21 -22.42781 149.25761 31084 ft 438 kts 156°
2026-05-06 00:21 -22.48130 149.29091 31084 ft 438 kts 156°
2026-05-06 00:22 -22.53485 149.32428 31084 ft 438 kts 156°
2026-05-06 00:22 -22.58854 149.35777 31084 ft 438 kts 156°
2026-05-06 00:23 -22.64174 149.39098 31084 ft 438 kts 157°
2026-05-06 00:23 -22.69520 149.42438 31083 ft 437 kts 157°
2026-05-06 00:24 -22.74862 149.45779 31084 ft 438 kts 157°
2026-05-06 00:24 -22.80205 149.49124 31084 ft 438 kts 157°
2026-05-06 00:25 -22.85523 149.52454 31083 ft 438 kts 157°
2026-05-06 00:25 -22.90861 149.55801 31083 ft 438 kts 157°
2026-05-06 00:26 -22.96207 149.59155 31083 ft 440 kts 157°
2026-05-06 00:26 -23.01613 149.62550 31083 ft 443 kts 157°
2026-05-06 00:27 -23.07049 149.65974 31080 ft 445 kts 157°
2026-05-06 00:27 -23.12477 149.69408 31083 ft 445 kts 156°
2026-05-06 00:28 -23.17871 149.72821 31084 ft 445 kts 157°
2026-05-06 00:28 -23.23325 149.76274 31084 ft 445 kts 157°
2026-05-06 00:29 -23.28705 149.79683 31084 ft 445 kts 157°
2026-05-06 00:29 -23.34140 149.83128 31084 ft 445 kts 157°
2026-05-06 00:30 -23.39578 149.86580 31084 ft 445 kts 157°
2026-05-06 00:30 -23.44963 149.89999 31084 ft 445 kts 157°
2026-05-06 00:31 -23.50405 149.93460 31084 ft 445 kts 157°
2026-05-06 00:31 -23.55812 149.96902 31084 ft 445 kts 157°
2026-05-06 00:32 -23.61258 150.00371 31084 ft 445 kts 157°
2026-05-06 00:32 -23.66664 150.03819 31084 ft 445 kts 157°
2026-05-06 00:33 -23.72079 150.07275 31084 ft 445 kts 157°
2026-05-06 00:33 -23.77495 150.10735 31084 ft 445 kts 157°
2026-05-06 00:34 -23.82883 150.14182 31084 ft 445 kts 157°
2026-05-06 00:34 -23.88334 150.17671 31084 ft 445 kts 157°
2026-05-06 00:35 -23.93744 150.21137 31084 ft 445 kts 157°
2026-05-06 00:35 -23.99165 150.24614 31084 ft 445 kts 157°
2026-05-06 00:36 -24.04584 150.28095 31084 ft 445 kts 157°
2026-05-06 00:36 -24.09981 150.31563 31084 ft 445 kts 157°
2026-05-06 00:37 -24.15395 150.35045 31084 ft 445 kts 157°
2026-05-06 00:37 -24.20839 150.38550 31084 ft 445 kts 156°
2026-05-06 00:38 -24.26251 150.42038 31084 ft 445 kts 157°
2026-05-06 00:38 -24.31644 150.45515 31084 ft 445 kts 157°
2026-05-06 00:39 -24.37074 150.49022 31084 ft 446 kts 157°
2026-05-06 00:39 -24.42474 150.52510 31084 ft 446 kts 157°
2026-05-06 00:40 -24.47869 150.56001 31084 ft 446 kts 156°
2026-05-06 00:40 -24.53185 150.59731 31084 ft 448 kts 153°
2026-05-06 00:41 -24.58432 150.63571 31084 ft 449 kts 153°
2026-05-06 00:41 -24.63717 150.67439 31082 ft 449 kts 153°
2026-05-06 00:42 -24.68952 150.71266 31084 ft 448 kts 153°
2026-05-06 00:42 -24.74240 150.75134 31084 ft 448 kts 153°
2026-05-06 00:43 -24.79475 150.78966 31084 ft 448 kts 153°
2026-05-06 00:43 -24.84737 150.82822 31084 ft 448 kts 153°
2026-05-06 00:44 -24.89993 150.86676 31084 ft 448 kts 153°
2026-05-06 00:44 -24.95241 150.90529 31084 ft 448 kts 153°
2026-05-06 00:45 -25.00527 150.94415 31084 ft 448 kts 153°
2026-05-06 00:45 -25.05765 150.98268 31084 ft 448 kts 153°
2026-05-06 00:46 -25.11014 151.02135 31085 ft 448 kts 153°
2026-05-06 00:46 -25.16255 151.05997 31084 ft 447 kts 153°
2026-05-06 00:47 -25.21530 151.09889 31084 ft 447 kts 153°
2026-05-06 00:47 -25.26776 151.13765 31084 ft 447 kts 153°
2026-05-06 00:48 -25.32035 151.17654 31084 ft 446 kts 153°
2026-05-06 00:48 -25.37238 151.21507 31084 ft 446 kts 153°
2026-05-06 00:49 -25.42503 151.25411 31084 ft 446 kts 153°
2026-05-06 00:49 -25.47714 151.29275 31084 ft 446 kts 153°
2026-05-06 00:50 -25.52982 151.33188 31084 ft 446 kts 153°
2026-05-06 00:50 -25.58208 151.37073 31084 ft 446 kts 153°
2026-05-06 00:51 -25.63430 151.40956 31084 ft 446 kts 153°
2026-05-06 00:51 -25.68678 151.44865 31088 ft 446 kts 153°
2026-05-06 00:52 -25.73851 151.48833 31094 ft 449 kts 149°
2026-05-06 00:52 -25.78721 151.53372 31103 ft 453 kts 144°
2026-05-06 00:53 -25.83445 151.58086 31108 ft 453 kts 144°
2026-05-06 00:53 -25.88204 151.62834 31111 ft 453 kts 144°
2026-05-06 00:54 -25.92973 151.67583 31110 ft 453 kts 144°
2026-05-06 00:54 -25.97721 151.72311 31112 ft 453 kts 144°
2026-05-06 00:55 -26.02466 151.77042 31112 ft 453 kts 144°
2026-05-06 00:55 -26.07225 151.81792 31112 ft 453 kts 144°
2026-05-06 00:56 -26.11980 151.86542 31112 ft 453 kts 144°
2026-05-06 00:56 -26.16085 151.90648 31112 ft 453 kts 144°
2026-05-06 00:57 -26.20458 151.95026 31112 ft 453 kts 144°
2026-05-06 00:57 -26.25001 151.99577 31112 ft 453 kts 144°
2026-05-06 00:58 -26.29761 152.04353 31112 ft 453 kts 144°
2026-05-06 00:58 -26.34507 152.09120 31112 ft 453 kts 144°
2026-05-06 00:59 -26.39271 152.13911 31112 ft 453 kts 144°
2026-05-06 00:59 -26.44007 152.18678 31112 ft 453 kts 144°
2026-05-06 01:00 -26.48765 152.23473 31112 ft 453 kts 144°
2026-05-06 01:00 -26.53504 152.28253 31112 ft 453 kts 144°
2026-05-06 01:01 -26.58218 152.33012 31112 ft 453 kts 144°
2026-05-06 01:01 -26.62936 152.37784 31112 ft 452 kts 144°
2026-05-06 01:02 -26.67635 152.42609 31112 ft 453 kts 143°
2026-05-06 01:02 -26.72337 152.47475 31112 ft 453 kts 143°
2026-05-06 01:03 -26.77025 152.52321 31112 ft 453 kts 143°
2026-05-06 01:03 -26.81732 152.57187 31112 ft 453 kts 143°
2026-05-06 01:04 -26.86406 152.62027 31112 ft 453 kts 143°
2026-05-06 01:04 -26.91346 152.67127 31109 ft 453 kts 143°
2026-05-06 01:05 -26.96066 152.71970 31111 ft 455 kts 143°
2026-05-06 01:05 -27.00827 152.76839 31112 ft 456 kts 143°
2026-05-06 01:06 -27.05596 152.81700 31112 ft 457 kts 143°
2026-05-06 01:06 -27.10338 152.86526 31112 ft 457 kts 143°
2026-05-06 01:07 -27.14216 152.90469 31112 ft 457 kts 143°
2026-05-06 01:07 -27.17573 152.93884 31112 ft 457 kts 143°
2026-05-06 01:08 -27.22224 152.98636 31105 ft 435 kts 144°
2026-05-06 01:08 -27.24447 153.00932 31104 ft 419 kts 144°
2026-05-06 01:08 -27.26555 153.03133 31103 ft 404 kts 144°
2026-05-06 01:09 -27.30677 153.07461 31110 ft 400 kts 144°
2026-05-06 01:09 -27.34784 153.11783 31112 ft 400 kts 144°
2026-05-06 01:10 -27.37050 153.14168 31112 ft 400 kts 144°
2026-05-06 01:12 -27.37313 153.14445 31112 ft 400 kts 144°
2026-05-06 01:12 -27.39371 153.16611 30869 ft 402 kts 144°
2026-05-06 01:13 -27.41428 153.18770 30315 ft 403 kts 144°
2026-05-06 01:13 -27.43519 153.20955 29755 ft 404 kts 144°
2026-05-06 01:13 -27.45582 153.23102 29204 ft 405 kts 144°
2026-05-06 01:13 -27.47675 153.25291 28643 ft 407 kts 140°
2026-05-06 01:14 -27.50394 153.31056 27512 ft 426 kts 102°
2026-05-06 01:14 -27.50585 153.34464 26960 ft 429 kts 90°
2026-05-06 01:14 -27.50426 153.37863 26399 ft 430 kts 83°
2026-05-06 01:15 -27.49656 153.41142 25831 ft 429 kts 65°
2026-05-06 01:15 -27.48086 153.44006 25273 ft 424 kts 46°
2026-05-06 01:15 -27.45888 153.46178 24716 ft 415 kts 27°
2026-05-06 01:15 -27.43246 153.47488 24153 ft 403 kts
2026-05-06 01:16 -27.40502 153.48112 23606 ft 398 kts
2026-05-06 01:16 -27.37766 153.48566 23196 ft 392 kts
2026-05-06 01:16 -27.35052 153.48987 23108 ft 378 kts
2026-05-06 01:16 -27.32461 153.49394 23104 ft 362 kts
2026-05-06 01:17 -27.29993 153.49793 23102 ft 347 kts
2026-05-06 01:17 -27.27632 153.50188 23102 ft 334 kts
2026-05-06 01:17 -27.25305 153.50532 23100 ft 329 kts 354°
2026-05-06 01:17 -27.23110 153.50159 23097 ft 312 kts 330°
2026-05-06 01:18 -27.21207 153.48997 23113 ft 304 kts 320°
2026-05-06 01:18 -27.19447 153.47626 22897 ft 306 kts 317°
2026-05-06 01:18 -27.17687 153.46179 22145 ft 311 kts 317°
2026-05-06 01:18 -27.15890 153.44661 21399 ft 337 kts 317°
2026-05-06 01:19 -27.13967 153.43002 20625 ft 343 kts 317°
2026-05-06 01:19 -27.12079 153.41363 19866 ft 340 kts 317°
2026-05-06 01:19 -27.10208 153.39732 19105 ft 335 kts 317°
2026-05-06 01:19 -27.08368 153.38107 18340 ft 329 kts 314°
2026-05-06 01:20 -27.06805 153.36244 17570 ft 319 kts 304°
2026-05-06 01:20 -27.05454 153.34264 16807 ft 313 kts 302°
2026-05-06 01:20 -27.04163 153.32288 16046 ft 309 kts 302°
2026-05-06 01:20 -27.02894 153.30321 15282 ft 306 kts 302°
2026-05-06 01:21 -27.01645 153.28369 14518 ft 303 kts 302°
2026-05-06 01:21 -27.00415 153.26428 13753 ft 300 kts 302°
2026-05-06 01:21 -26.99199 153.24493 12985 ft 297 kts 302°
2026-05-06 01:21 -26.98023 153.22601 12230 ft 295 kts 302°
2026-05-06 01:22 -26.96853 153.20700 11467 ft 292 kts 300°
2026-05-06 01:22 -26.95888 153.18675 10698 ft 288 kts 291°
2026-05-06 01:22 -26.95084 153.16600 9935 ft 288 kts 290°
2026-05-06 01:22 -26.94295 153.14484 9179 ft 291 kts 290°
2026-05-06 01:23 -26.93516 153.12383 8547 ft 291 kts 290°
2026-05-06 01:23 -26.92822 153.10504 7981 ft 290 kts 289°
2026-05-06 01:23 -26.92124 153.08426 7363 ft 289 kts 287°
2026-05-06 01:23 -26.91441 153.06287 6728 ft 288 kts 287°
2026-05-06 01:24 -26.90769 153.04153 6095 ft 288 kts 287°
2026-05-06 01:24 -26.90116 153.02033 5466 ft 287 kts 284°
2026-05-06 01:24 -26.89935 152.99793 4804 ft 281 kts 258°
2026-05-06 01:24 -26.90653 152.97806 4282 ft 270 kts 230°
2026-05-06 01:25 -26.92063 152.96530 4104 ft 247 kts 202°
2026-05-06 01:25 -26.93675 152.95938 4107 ft 238 kts 190°
2026-05-06 01:25 -26.95301 152.95689 4101 ft 228 kts 185°
2026-05-06 01:25 -26.96897 152.95534 4104 ft 226 kts 184°
2026-05-06 01:26 -26.97132 152.95512 4104 ft 226 kts 184°